TimePST,TemperatureF,Dew PointF,Humidity,Sea Level PressureIn,VisibilityMPH,Wind Direction,Wind SpeedMPH,Gust SpeedMPH,PrecipitationIn,Events,Conditions,WindDirDegrees,DateUTC
12:56 AM,55.9,28.0,34,29.77,10.0,South,11.5,26.5,N/A,,Clear,170,2012-11-30 08:56:00
1:56 AM,55.9,28.0,34,29.77,10.0,South,11.5,-,N/A,,Overcast,180,2012-11-30 09:56:00
2:56 AM,54.0,28.9,38,29.77,10.0,South,11.5,-,N/A,,Overcast,180,2012-11-30 10:56:00
3:56 AM,55.0,28.9,37,29.76,10.0,South,11.5,-,N/A,,Clear,180,2012-11-30 11:56:00
4:56 AM,54.0,30.0,40,29.77,9.0,South,11.5,20.7,N/A,,Mostly Cloudy,190,2012-11-30 12:56:00
5:56 AM,53.1,30.0,41,29.77,10.0,South,11.5,-,N/A,,Overcast,180,2012-11-30 13:56:00
6:14 AM,53.6,30.2,41,29.82,10.0,South,15.0,-,N/A,,Overcast,170,2012-11-30 14:14:00
6:56 AM,51.1,30.0,44,29.75,10.0,South,10.4,-,N/A,,Overcast,170,2012-11-30 14:56:00
7:56 AM,54.0,30.0,40,29.75,10.0,South,11.5,-,N/A,,Overcast,180,2012-11-30 15:56:00
8:56 AM,55.9,30.9,39,29.78,10.0,South,13.8,-,N/A,,Overcast,180,2012-11-30 16:56:00
9:56 AM,57.9,30.0,35,29.76,10.0,South,10.4,-,N/A,,Overcast,180,2012-11-30 17:56:00
10:56 AM,59.0,33.1,38,29.75,10.0,South,12.7,-,N/A,,Overcast,170,2012-11-30 18:56:00
11:10 AM,59.0,33.8,39,29.80,10.0,South,11.5,-,0.00,Rain,Light Rain,170,2012-11-30 19:10:00
11:56 AM,57.9,35.1,42,29.74,10.0,SW,10.4,-,0.00,Rain,Light Rain,230,2012-11-30 19:56:00
12:56 PM,54.0,41.0,62,29.76,10.0,WSW,17.3,-,0.00,Rain,Light Rain,240,2012-11-30 20:56:00
1:39 PM,51.8,42.8,71,29.83,10.0,SSW,13.8,-,0.00,,Overcast,210,2012-11-30 21:39:00
1:56 PM,53.1,42.1,66,29.77,10.0,SSW,15.0,-,0.00,,Overcast,200,2012-11-30 21:56:00
2:56 PM,54.0,39.9,59,29.83,10.0,SW,18.4,26.5,0.00,Rain,Light Rain,230,2012-11-30 22:56:00
3:56 PM,51.1,41.0,68,29.80,10.0,South,15.0,-,0.00,,Mostly Cloudy,190,2012-11-30 23:56:00
4:56 PM,46.9,39.0,74,29.80,10.0,SSW,8.1,-,N/A,,Scattered Clouds,200,2012-12-01 00:56:00
5:56 PM,43.0,36.0,76,29.81,10.0,SSE,8.1,-,N/A,,Clear,160,2012-12-01 01:56:00
6:56 PM,43.0,36.0,76,29.81,10.0,SSW,8.1,-,N/A,,Clear,200,2012-12-01 02:56:00
7:56 PM,42.1,35.1,76,29.82,10.0,South,6.9,-,N/A,,Clear,190,2012-12-01 03:56:00
8:56 PM,41.0,34.0,76,29.83,10.0,SE,6.9,-,N/A,,Scattered Clouds,140,2012-12-01 04:56:00
9:56 PM,39.0,33.1,79,29.84,10.0,SE,10.4,-,N/A,,Scattered Clouds,140,2012-12-01 05:56:00
10:56 PM,41.0,33.1,73,29.83,10.0,SE,8.1,-,N/A,,Clear,140,2012-12-01 06:56:00
11:56 PM,42.1,32.0,67,29.83,10.0,ESE,4.6,-,N/A,,Clear,120,2012-12-01 07:56:00